Total_Precipitation_Accumulation
0.01 0.02 0.02 0.02 0.02 0.03 0.06 0.14 0.20 0.22 0.27 0.29 0.38 0.48 0.78 0.99 1.07 1.20 1.34 1.54 1.76 1.94 2.01 2.17 2.47 2.69 2.80 2.95 3.18 3.46 3.88 4.23 4.31 4.12 4.03 3.94 3.62 3.32 2.99 2.68 2.59 2.69 2.61 2.71
0.02 0.03 0.02 0.02 0.02 0.04 0.07 0.14 0.21 0.25 0.29 0.29 0.43 0.54 0.79 1.18 1.29 1.25 1.30 1.33 1.41 1.84 2.02 2.22 2.48 2.60 2.57 2.77 3.06 3.47 3.89 4.22 4.12 4.19 4.37 4.30 4.06 3.41 3.04 2.85 2.74 2.66 2.63 2.64
0.03 0.03 0.02 0.03 0.04 0.06 0.09 0.13 0.18 0.24 0.35 0.32 0.42 0.77 0.98 1.26 1.39 1.28 1.24 1.25 1.20 1.37 1.65 1.80 1.96 2.13 2.39 2.81 3.22 3.48 3.75 3.91 3.95 4.11 4.24 3.97 3.75 3.25 3.06 3.07 2.89 2.74 2.77 2.77
0.02 0.03 0.03 0.05 0.06 0.07 0.12 0.10 0.11 0.18 0.31 0.44 0.53 1.08 1.37 1.56 1.44 1.18 1.21 1.27 1.37 1.46 1.49 1.58 1.70 2.01 2.37 2.75 3.25 3.67 3.69 3.72 3.66 3.80 3.88 3.68 3.33 3.06 2.96 2.96 2.72 2.62 2.56 2.56
0.06 0.04 0.03 0.04 0.06 0.06 0.08 0.08 0.09 0.16 0.25 0.41 0.58 0.98 1.42 1.49 1.38 1.14 1.06 1.24 1.45 1.40 1.38 1.48 1.57 1.83 2.08 2.46 2.85 3.24 3.54 3.61 3.48 3.45 3.47 3.56 3.35 3.05 2.84 2.74 2.61 2.54 2.53 2.35
0.08 0.07 0.06 0.05 0.06 0.06 0.07 0.09 0.15 0.24 0.41 0.72 0.57 0.71 1.15 1.38 1.27 1.04 1.04 1.17 1.32 1.46 1.46 1.53 1.75 1.91 2.03 2.31 2.63 2.86 3.09 3.14 3.10 3.01 3.02 3.11 3.12 3.05 2.77 2.55 2.52 2.51 2.41 2.24
0.17 0.17 0.12 0.09 0.08 0.07 0.08 0.18 0.51 0.83 1.13 0.98 0.62 0.73 1.11 1.08 0.91 0.81 0.87 1.11 1.35 1.58 1.55 1.65 1.82 1.92 1.99 2.12 2.27 2.38 2.49 2.55 2.50 2.49 2.46 2.46 2.54 2.61 2.43 2.31 2.36 2.37 2.26 2.12
0.25 0.24 0.17 0.15 0.12 0.11 0.11 0.22 0.58 0.76 0.90 0.87 0.82 1.04 1.11 0.88 0.74 0.74 0.80 0.97 1.24 1.41 1.43 1.54 1.63 1.54 1.54 1.61 1.72 1.84 1.92 1.96 1.93 1.99 2.07 2.09 2.25 2.23 2.15 2.24 2.19 2.21 2.16 2.10
0.14 0.15 0.15 0.15 0.16 0.15 0.20 0.26 0.27 0.45 0.55 0.90 1.09 1.22 1.09 0.80 0.91 0.89 0.94 1.01 1.06 1.12 1.15 1.14 1.15 1.19 1.30 1.36 1.39 1.46 1.60 1.65 1.58 1.61 1.75 1.83 1.87 1.92 1.95 2.05 2.02 1.92 1.90 1.77
0.08 0.11 0.13 0.11 0.12 0.15 0.21 0.34 0.46 0.68 0.88 1.04 1.13 1.40 1.53 1.35 1.26 1.14 1.21 1.42 1.24 0.98 0.97 0.98 0.94 0.96 1.01 1.04 1.18 1.36 1.49 1.61 1.60 1.53 1.55 1.49 1.56 1.63 1.79 1.86 1.79 1.78 1.79 1.71
0.08 0.11 0.14 0.15 0.15 0.20 0.33 0.41 0.51 0.65 0.75 0.98 1.26 1.43 1.22 1.32 1.26 1.22 1.24 1.27 1.09 0.78 0.68 0.73 0.73 0.74 0.79 0.89 1.03 1.19 1.47 1.61 1.51 1.35 1.35 1.41 1.40 1.47 1.58 1.63 1.58 1.61 1.66 1.71
0.10 0.12 0.16 0.19 0.19 0.19 0.28 0.41 0.52 0.69 0.77 0.85 1.07 1.25 0.85 0.95 0.91 0.91 0.99 0.88 0.73 0.61 0.52 0.63 0.65 0.60 0.65 0.73 0.83 0.99 1.20 1.35 1.31 1.25 1.27 1.38 1.48 1.46 1.40 1.38 1.39 1.40 1.42 1.41
0.13 0.17 0.27 0.46 0.44 0.29 0.26 0.29 0.36 0.45 0.58 0.67 0.95 1.18 0.79 0.71 0.77 0.76 0.76 0.75 0.59 0.65 0.62 0.61 0.64 0.57 0.55 0.59 0.72 0.87 0.95 1.07 1.18 1.18 1.21 1.33 1.34 1.29 1.31 1.41 1.44 1.38 1.35 1.34
0.14 0.15 0.23 0.49 0.56 0.44 0.34 0.33 0.34 0.38 0.52 0.55 0.63 0.90 0.87 0.80 0.78 0.79 0.72 0.60 0.51 0.55 0.65 0.62 0.58 0.54 0.50 0.50 0.56 0.66 0.75 0.86 0.95 1.04 1.18 1.35 1.41 1.43 1.47 1.49 1.49 1.42 1.33 1.36
0.13 0.14 0.16 0.22 0.30 0.32 0.31 0.30 0.33 0.35 0.39 0.50 0.55 0.68 0.80 0.74 0.77 0.84 0.73 0.60 0.60 0.53 0.54 0.53 0.50 0.47 0.45 0.45 0.47 0.55 0.69 0.80 0.90 1.05 1.21 1.35 1.41 1.44 1.44 1.39 1.42 1.42 1.31 1.28
0.18 0.19 0.21 0.28 0.32 0.34 0.34 0.34 0.30 0.28 0.25 0.29 0.43 0.62 0.62 0.60 0.64 0.72 0.70 0.68 0.67 0.66 0.50 0.42 0.45 0.43 0.41 0.39 0.41 0.44 0.59 0.76 0.87 1.02 1.15 1.20 1.28 1.35 1.31 1.26 1.26 1.25 1.26 1.28
0.24 0.27 0.32 0.38 0.42 0.49 0.53 0.42 0.40 0.39 0.34 0.37 0.58 0.71 0.57 0.57 0.59 0.60 0.57 0.58 0.60 0.60 0.60 0.54 0.51 0.48 0.42 0.40 0.44 0.47 0.52 0.66 0.86 0.99 1.04 1.11 1.23 1.31 1.28 1.18 1.20 1.23 1.24 1.25
0.29 0.35 0.38 0.40 0.57 0.79 0.58 0.33 0.30 0.31 0.34 0.34 0.43 0.49 0.47 0.50 0.50 0.55 0.58 0.53 0.51 0.42 0.45 0.55 0.59 0.58 0.58 0.55 0.57 0.59 0.60 0.67 0.81 0.99 1.09 1.13 1.24 1.28 1.29 1.27 1.21 1.20 1.18 1.18
0.26 0.39 0.46 0.50 0.61 0.64 0.51 0.36 0.36 0.41 0.43 0.31 0.35 0.41 0.41 0.48 0.53 0.61 0.49 0.39 0.48 0.42 0.45 0.48 0.53 0.60 0.74 0.80 0.76 0.78 0.80 0.77 0.81 0.96 1.08 1.20 1.33 1.35 1.33 1.33 1.29 1.27 1.25 1.21
0.28 0.37 0.50 0.51 0.72 0.80 0.62 0.41 0.44 0.55 0.81 0.52 0.45 0.50 0.51 0.48 0.72 0.78 0.48 0.35 0.55 0.49 0.47 0.47 0.47 0.55 0.70 0.76 0.71 0.74 0.81 0.88 0.91 1.00 1.10 1.20 1.32 1.43 1.39 1.42 1.44 1.40 1.36 1.31
0.55 0.58 0.58 0.57 0.76 0.84 0.57 0.44 0.52 0.93 1.11 0.64 0.55 0.55 0.60 0.63 0.63 0.57 0.44 0.42 0.53 0.48 0.46 0.43 0.47 0.62 0.68 0.67 0.70 0.80 0.83 0.91 0.97 1.07 1.15 1.27 1.39 1.44 1.44 1.50 1.55 1.52 1.47 1.49
0.79 0.77 0.72 0.78 1.01 1.06 0.61 0.55 0.79 0.89 0.65 0.60 0.57 0.53 0.57 0.57 0.50 0.40 0.38 0.38 0.42 0.47 0.48 0.56 0.66 0.75 0.75 0.77 0.89 0.98 1.02 1.00 1.04 1.16 1.22 1.35 1.49 1.35 1.34 1.56 1.64 1.64 1.64 1.62
0.84 0.87 0.89 0.96 1.05 0.88 0.72 0.75 0.83 0.69 0.65 0.58 0.52 0.51 0.48 0.51 0.47 0.42 0.40 0.36 0.38 0.45 0.48 0.60 0.73 0.80 0.81 0.88 1.04 1.25 1.25 1.20 1.18 1.26 1.36 1.39 1.42 1.53 1.61 1.66 1.72 1.71 1.66 1.64
0.85 0.75 0.92 1.05 1.02 0.91 0.83 0.79 0.77 0.68 0.62 0.51 0.44 0.46 0.47 0.51 0.55 0.49 0.46 0.45 0.42 0.45 0.48 0.54 0.69 0.77 0.89 1.00 1.15 1.39 1.43 1.40 1.42 1.48 1.54 1.52 1.52 1.56 1.69 1.86 1.85 1.76 1.65 1.67
0.94 0.89 1.03 1.19 1.14 1.00 0.87 0.74 0.68 0.60 0.54 0.49 0.44 0.45 0.48 0.54 0.58 0.54 0.57 0.55 0.48 0.50 0.52 0.58 0.74 0.89 0.96 1.01 1.10 1.27 1.44 1.59 1.65 1.65 1.64 1.64 1.65 1.71 1.76 1.76 1.71 1.68 1.62 1.55
0.84 0.98 1.22 1.34 1.08 0.95 0.89 0.75 0.72 0.61 0.55 0.53 0.51 0.48 0.51 0.51 0.50 0.51 0.57 0.61 0.55 0.60 0.69 0.67 0.73 0.87 0.95 1.03 1.14 1.28 1.49 1.76 1.95 1.90 1.77 1.75 1.76 1.80 1.78 1.77 1.57 1.38 1.31 1.26